Regional Weather Roundup
Issued by NWS

Home | Current Version | Previous Version | Graphics & Text | Print | Product List | Glossary On
Versions: 1 2 3 4 5 6 7 8 9 10 11 12 13 14 15 16 17 18 19 20 21 22 23 24 25 26 27 28 29 30 31 32 33 34 35 36 37 38 39 40 41 42 43 44 45 46 47 48 49 50
000
ASUS45 KABQ 050401
RWRNM
WEATHER ROUNDUP FOR NEW MEXICO
NATIONAL WEATHER SERVICE ALBUQUERQUE NM
900 PM MST WED MAR 04 2015

NOTE: "FAIR" MEANS FEW OR NO CLOUDS BELOW 12,000 FEET AGL WITH NO
       SIGNIFICANT WEATHER OR OBSTRUCTIONS TO VISION.

      THIS PRODUCT IS RELEASED AS TWO VERSIONS.  ONE VERSION NEAR
      THE TOP OF THE HOUR CONTAINING PRELIMINARY DATA FROM ALBUQUERQUE
      AND OTHER STATIONS.  A FINAL VERSION WITH ADDITIONAL DATA IS
      ISSUED ABOUT 10 MINUTES AFTER THE HOUR.

NMZ501-503-504-510>518-050500-
NORTHWEST PLATEAU/NORTHCENTRAL MOUNTAINS

CITY           SKY/WX    TMP DP  RH WIND       PRES   REMARKS
FARMINGTON     CLEAR     32  16  51 W14       30.18R WCI  22
SANTA FE       PTCLDY    23  17  78 SE13      30.16R WCI  11
TAOS           PTCLDY    21  10  63 NW3       30.15R
ANGEL FIRE     FAIR       7   3  82 SE9       30.11R WCI  -6

$$
NMZ402-403-502-505>509-050500-
WESTCENTRAL MOUNTAINS/SOUTHWEST MOUNTAINS

CITY           SKY/WX    TMP DP  RH WIND       PRES   REMARKS
GALLUP         CLEAR     31  15  52 N6        30.21R WCI  25
GRANTS         CLEAR     27  15  61 N12       30.18R WCI  16
SILVER CITY    CLEAR     37  23  56 N8        30.14R WCI  31

$$
NMZ407-409-411-412-050500-
SOUTHERN DESERTS

CITY           SKY/WX    TMP DP  RH WIND       PRES   REMARKS
DEMING         PTCLDY    46  34  62 SW3       30.11R
HOLLOMAN AFB   PTCLDY    42  34  71 S10       30.09R
ALAMOGORDO     PTCLDY    39  34  81 S6        30.11R WCI  35
T OR C         CLEAR     46  19  34 NW10      30.10R

$$
NMZ519>523-050500-
CENTRAL VALLEYS/CENTRAL HIGHLANDS

CITY           SKY/WX    TMP DP  RH WIND       PRES   REMARKS
ALBUQUERQUE    PTCLDY    39  13  34 N10G21    30.17R WCI  32
DOUBLE EAGLE   CLEAR     34  12  40 NW13G20   30.16R WCI  25
MORIARTY ARPT  CLOUDY    23  18  81 SE7       30.22R WCI  14
CLINES CORNERS FOG       16  13  88 E15       30.16R VSB 3/4 WCI   1
BELEN          FAIR      38  17  42 NE12      30.16R WCI  30
SOCORRO          N/A     44  15  31 N7        30.12R

$$
NMZ524>526-539-540-050500-
SOUTHCENTRAL MOUNTAINS

CITY           SKY/WX    TMP DP  RH WIND       PRES   REMARKS
RUIDOSO        NOT AVBL

$$
NMZ527>531-050500-
NORTHEAST HIGHLANDS/NORTHEAST PLAINS

CITY           SKY/WX    TMP DP  RH WIND       PRES   REMARKS
LAS VEGAS      LGT SNOW   8   5  87 E7        30.21R FOG     WCI  -3
RATON          PTCLDY     7   4  87 W7        30.21R WCI  -5
CLAYTON        LGT SNOW  16  14  92 N6        30.28R FOG     WCI   7

$$
NMZ532>537-050500-
EASTCENTRAL PLAINS

CITY           SKY/WX    TMP DP  RH WIND       PRES   REMARKS
TUCUMCARI      FLURRIES  23  16  74 NE10      30.35R WCI  12
CANNON AFB     NOT AVBL
CLOVIS AIRPORT CLOUDY    21  16  79 NE14      30.32R WCI   8

$$
NMZ028-029-538-050500-
SOUTHEAST PLAINS

CITY           SKY/WX    TMP DP  RH WIND       PRES   REMARKS
ROSWELL        CLOUDY    28  21  75 NE12      30.33R WCI  18
ARTESIA        CLOUDY    28  21  74 NE12      30.34R WCI  18
CARLSBAD       CLOUDY    30  24  78 E9        30.32R WCI  22
HOBBS          CLOUDY    25  25 100 NE17G28   30.31R WCI  11


$$



USA.gov is the U.S. government's official web portal to all federal, state and local government web resources and services.